FENGYUN 1C DEB

Satellite information

Favourite Embed

Satellite Type and Status

DEBRISIN ORBIT

Key statistics

Satellite FENGYUN 1C DEB at a glance.

Uptime

9553

Days in orbit

Revolutions

≈ 14.2

Per day

Orbit

SSO

Sun Synchronous Orbit

Inclination

98.8

Latest

Satellite identification and parameters

Extended collection of information and parameters for FENGYUN 1C DEB.

Object identification

Identified? True

Debris? True

Object name: FENGYUN 1C DEB

International designator: 1999-025AGN

Object number (NORAD): 30475

Object ID (CCSDS): 30475

Country: PEOPLES REPUBLIC OF CHINA (PRC)

Current information (Y/N): Y

RCS size: SMALL

Orbital parameters

Period: 101.759 minutes

Inclination: 98.7972 deg

SMA: 7220.08 km

Apoapsis: 873.623 km

Periapsis: 810.268 km

RAAN: 229.1473 deg

Eccentricy: 0.0043874

Argument of periapsis: 35.3796 deg

Mean anomaly: 32.8877 deg

Mean motion: 14.15108469 rev/day

Mean motion (dot): 0.00001123 rev/day2

B* drag term: 0.00059581 1/REarth

Two-line elements (TLE)

Creation date: July 4, 2025, 6:39 p.m.

Reference frame: TEME

Reference center: EARTH

Epoch: July 4, 2025, 9:13 a.m. UTC

TLE line 0: 0 FENGYUN 1C DEB

TLE line 1: 1 30475U 99025AGN 25185.38452932 .00001123 00000-0 59581-3 0 9999

TLE line 2: 2 30475 98.7972 229.1473 0043874 35.3796 32.8877 14.15108469946698

Live tracking on map

Real-time ground track for satellite FENGYUN 1C DEB.

In-orbit conjunctions

A list of the most updated potential collisions computed for object FENGYUN 1C DEB.

Target Orbit TCA Probability of collision Miss distance Type
COSMOS 2322 LEO 2025-06-21 10:12:55 0.0001591522 198.0 (m) PAYLOAD
CZ-6A DEB LEO 2025-05-19 08:32:38 0.000103177 316.0 (m) DEBRIS
COSMOS 2251 DEB LEO 2024-12-30 07:32:33 0.0001886555 157.0 (m) DEBRIS

Associated space launch

Chinese polar orbiting meteorological satellite

FENGYUN 1C DEB was lifted into orbit during the mission ‘Long March 4B | Feng Yun 1C’, on board a Long March 4B space rocket.

The launch took place on May 10, 1999, 1:33 a.m. from Launch Complex 7.

For more information about the launch, click the button.

Launch to space Long March 4B | Feng Yun 1C
Long March 4B | Feng Yun 1C

Agency: N/A

Status: Launch Successful

Launch date: May 10, 1999, 1:33 a.m. UTC

Rocket: Long March 4B

Launch pad: Launch Complex 7

Location: Taiyuan Satellite Launch Center, People's Republic of China

...

Latest news about this satellite

There are no fresh news available about this satellite. Check back as we update our databases every day.


Newsletter sign-up

Weekly statistics, charts and insights to help you stay on top of the space industry.